TimeEDT,TemperatureF,Dew PointF,Humidity,Sea Level PressureIn,VisibilityMPH,Wind Direction,Wind SpeedMPH,Gust SpeedMPH,PrecipitationIn,Events,Conditions,WindDirDegrees,DateUTC
12:54 AM,54.0,48.9,83,29.89,-9999.0,Calm,Calm,-,N/A,,Unknown,0,2013-05-17 04:54:00
1:54 AM,57.0,41.0,55,29.91,-9999.0,Calm,Calm,-,N/A,,Unknown,0,2013-05-17 05:54:00
2:54 AM,52.0,43.0,71,29.92,-9999.0,Calm,Calm,-,N/A,,Unknown,0,2013-05-17 06:54:00
3:54 AM,52.0,41.0,66,29.94,-9999.0,Variable,3.5,-,N/A,,Unknown,0,2013-05-17 07:54:00
4:54 AM,50.0,43.0,77,29.97,-9999.0,Calm,Calm,-,N/A,,Unknown,0,2013-05-17 08:54:00
5:54 AM,53.1,39.9,61,29.99,-9999.0,North,5.8,-,N/A,,Unknown,350,2013-05-17 09:54:00
6:54 AM,55.0,39.9,57,30.04,-9999.0,Calm,Calm,-,N/A,,Unknown,0,2013-05-17 10:54:00
7:54 AM,57.0,41.0,55,30.06,-9999.0,Variable,4.6,-,N/A,,Unknown,0,2013-05-17 11:54:00
8:54 AM,57.0,39.0,51,30.08,-9999.0,Variable,5.8,-,N/A,,Unknown,0,2013-05-17 12:54:00
9:54 AM,57.0,39.0,51,30.09,-9999.0,NNW,4.6,-,N/A,,Unknown,330,2013-05-17 13:54:00
10:54 AM,59.0,39.0,48,30.11,-9999.0,Variable,5.8,-,N/A,,Unknown,0,2013-05-17 14:54:00
11:54 AM,61.0,37.9,42,30.12,-9999.0,NNW,8.1,-,N/A,,Unknown,330,2013-05-17 15:54:00
12:54 PM,64.0,39.0,40,30.12,-9999.0,Variable,5.8,-,N/A,,Unknown,0,2013-05-17 16:54:00
1:54 PM,66.9,39.0,36,30.10,-9999.0,Variable,3.5,-,N/A,,Unknown,0,2013-05-17 17:54:00
2:54 PM,70.0,37.0,30,30.09,-9999.0,North,9.2,17.3,N/A,,Unknown,360,2013-05-17 18:54:00
3:54 PM,70.0,37.0,30,30.09,-9999.0,Variable,4.6,-,N/A,,Unknown,0,2013-05-17 19:54:00
4:54 PM,73.0,39.9,30,30.09,-9999.0,North,5.8,-,N/A,,Unknown,360,2013-05-17 20:54:00
5:54 PM,72.0,37.9,29,30.09,-9999.0,NNW,5.8,-,N/A,,Unknown,340,2013-05-17 21:54:00
6:54 PM,70.0,37.9,31,30.11,-9999.0,Calm,Calm,-,N/A,,Unknown,0,2013-05-17 22:54:00
7:54 PM,63.0,39.9,43,30.14,-9999.0,Calm,Calm,-,N/A,,Unknown,0,2013-05-17 23:54:00
8:54 PM,57.9,42.1,56,30.17,-9999.0,Calm,Calm,-,N/A,,Unknown,0,2013-05-18 00:54:00
9:54 PM,55.0,46.0,72,30.19,-9999.0,Calm,Calm,-,N/A,,Unknown,0,2013-05-18 01:54:00
10:54 PM,53.1,46.0,77,30.20,-9999.0,Calm,Calm,-,N/A,,Unknown,0,2013-05-18 02:54:00
11:54 PM,50.0,46.0,86,30.22,-9999.0,Calm,Calm,-,N/A,,Unknown,0,2013-05-18 03:54:00